Вернуться в каталог

COSMOS 976

АктивенНавигацияLEO
NORAD 10581·PAYLOAD·🇷🇺 Russia

Запущен Jan 10, 1978 с Plesetsk Cosmodrome

Loading…

Ближайшие Пролёты (ближайшие 24 часа)

TLE

СвежийSource: Space-Track

Эпоха: Sep 14, 2026, 10:55 UTC

1 10581U 78005A   26257.45525734  .00000010  00000-0  16683-3 0  9990
2 10581  74.0317 155.9862 0005857 296.1886 175.5241 12.51298359216199

Отслеживайте COSMOS 976 в реальном времени с AllMySat

Download on the App Store